Time,TemperatureF,DewpointF,PressureIn,WindDirection,WindDirectionDegrees,WindSpeedMPH,WindSpeedGustMPH,Humidity,HourlyPrecipIn,Conditions,Clouds,dailyrainin,SoftwareType,DateUTC
2013-05-12 00:03:00,-999.0,-99.9,29.74,SSW,200,4.0,4.0,-999,-99.99,,,-99.99,,2013-05-12 04:03:00,
2013-05-12 00:12:00,65.0,-99.9,29.73,South,180,2.0,7.0,-999,-99.99,,,-99.99,,2013-05-12 04:12:00,
2013-05-12 00:23:00,64.0,-99.9,29.73,South,190,7.0,7.0,-999,-99.99,,,-99.99,,2013-05-12 04:23:00,
2013-05-12 00:33:00,64.0,-99.9,29.72,South,180,2.0,7.0,-999,-99.99,,,-99.99,,2013-05-12 04:33:00,
2013-05-12 00:43:00,64.0,-99.9,29.72,SSW,210,4.0,4.0,-999,-99.99,,,-99.99,,2013-05-12 04:43:00,
2013-05-12 00:52:00,64.0,-99.9,29.72,SSW,200,4.0,7.0,-999,-99.99,,,-99.99,,2013-05-12 04:52:00,
2013-05-12 01:02:00,64.0,-99.9,29.72,SSW,200,4.0,7.0,-999,-99.99,,,-99.99,,2013-05-12 05:02:00,
2013-05-12 01:12:00,64.0,-99.9,29.74,SW,220,11.0,16.0,-999,-99.99,,,-99.99,,2013-05-12 05:12:00,
2013-05-12 01:22:00,64.0,-99.9,29.74,SW,230,11.0,13.0,-999,-99.99,,,-99.99,,2013-05-12 05:22:00,
2013-05-12 01:32:00,64.0,-99.9,29.74,West,270,7.0,11.0,-999,-99.99,,,-99.99,,2013-05-12 05:32:00,
2013-05-12 01:42:00,65.0,-99.9,29.74,West,280,7.0,11.0,-999,-99.99,,,-99.99,,2013-05-12 05:42:00,
2013-05-12 01:52:00,65.0,-99.9,29.73,NW,310,7.0,9.0,-999,-99.99,,,-99.99,,2013-05-12 05:52:00,
2013-05-12 02:02:00,65.0,-99.9,29.73,NW,320,9.0,11.0,-999,-99.99,,,-99.99,,2013-05-12 06:02:00,
2013-05-12 02:11:00,65.0,-99.9,29.73,NNW,330,9.0,11.0,-999,-99.99,,,-99.99,,2013-05-12 06:11:00,
2013-05-12 02:22:00,65.0,-99.9,29.73,NW,320,9.0,11.0,-999,-99.99,,,-99.99,,2013-05-12 06:22:00,
2013-05-12 02:32:00,65.0,-99.9,29.73,NW,320,9.0,11.0,-999,-99.99,,,-99.99,,2013-05-12 06:32:00,
2013-05-12 02:42:00,65.0,-99.9,29.72,NW,310,4.0,7.0,-999,-99.99,,,-99.99,,2013-05-12 06:42:00,
2013-05-12 02:52:00,65.0,-99.9,29.73,WNW,300,4.0,7.0,-999,-99.99,,,-99.99,,2013-05-12 06:52:00,
2013-05-12 03:02:00,65.0,-99.9,29.73,WNW,300,4.0,7.0,-999,-99.99,,,-99.99,,2013-05-12 07:02:00,
2013-05-12 03:11:00,65.0,-99.9,29.73,WNW,300,4.0,7.0,-999,-99.99,,,-99.99,,2013-05-12 07:11:00,
2013-05-12 03:22:00,65.0,-99.9,29.72,WNW,300,2.0,4.0,-999,-99.99,,,-99.99,,2013-05-12 07:22:00,
2013-05-12 03:32:00,64.0,-99.9,29.72,NW,320,4.0,11.0,-999,-99.99,,,-99.99,,2013-05-12 07:32:00,
2013-05-12 03:42:00,65.0,-99.9,29.72,NNW,340,9.0,11.0,-999,-99.99,,,-99.99,,2013-05-12 07:42:00,
2013-05-12 03:52:00,65.0,-99.9,29.72,NNW,330,9.0,11.0,-999,-99.99,,,-99.99,,2013-05-12 07:52:00,
2013-05-12 04:02:00,65.0,-99.9,29.72,NNW,340,7.0,9.0,-999,-99.99,,,-99.99,,2013-05-12 08:02:00,
2013-05-12 04:12:00,64.0,-99.9,29.72,NNW,340,9.0,11.0,-999,-99.99,,,-99.99,,2013-05-12 08:12:00,
2013-05-12 04:22:00,64.0,-99.9,29.73,NW,320,7.0,13.0,-999,-99.99,,,-99.99,,2013-05-12 08:22:00,
2013-05-12 04:32:00,64.0,-99.9,29.74,WNW,300,9.0,13.0,-999,-99.99,,,-99.99,,2013-05-12 08:32:00,
2013-05-12 04:42:00,64.0,-99.9,29.74,WNW,300,9.0,13.0,-999,-99.99,,,-99.99,,2013-05-12 08:42:00,
2013-05-12 04:53:00,64.0,-99.9,29.73,NW,310,13.0,16.0,-999,-99.99,,,-99.99,,2013-05-12 08:53:00,
2013-05-12 05:01:00,63.0,-99.9,29.74,NW,310,11.0,16.0,-999,-99.99,,,-99.99,,2013-05-12 09:01:00,
2013-05-12 05:11:00,63.0,-99.9,29.74,NW,310,11.0,16.0,-999,-99.99,,,-99.99,,2013-05-12 09:11:00,
2013-05-12 05:22:00,63.0,-99.9,29.74,NW,320,11.0,16.0,-999,-99.99,,,-99.99,,2013-05-12 09:22:00,
2013-05-12 05:33:00,63.0,-99.9,29.74,NW,320,11.0,16.0,-999,-99.99,,,-99.99,,2013-05-12 09:33:00,
2013-05-12 05:43:00,63.0,-99.9,29.75,NW,320,11.0,13.0,-999,-99.99,,,-99.99,,2013-05-12 09:43:00,
2013-05-12 05:53:00,62.0,-99.9,29.75,NW,320,11.0,16.0,-999,-99.99,,,-99.99,,2013-05-12 09:53:00,
2013-05-12 06:03:00,62.0,-99.9,29.75,NW,320,11.0,16.0,-999,-99.99,,,-99.99,,2013-05-12 10:03:00,
2013-05-12 06:12:00,62.0,-99.9,29.76,NW,320,16.0,20.0,-999,-99.99,,,-99.99,,2013-05-12 10:12:00,
2013-05-12 06:23:00,62.0,-99.9,29.76,NW,320,16.0,18.0,-999,-99.99,,,-99.99,,2013-05-12 10:23:00,
2013-05-12 06:33:00,62.0,-99.9,29.75,NW,320,13.0,18.0,-999,-99.99,,,-99.99,,2013-05-12 10:33:00,
2013-05-12 06:42:00,62.0,-99.9,29.75,NNW,330,13.0,18.0,-999,-99.99,,,-99.99,,2013-05-12 10:42:00,
2013-05-12 06:52:00,62.0,-99.9,29.76,NNW,330,13.0,18.0,-999,-99.99,,,-99.99,,2013-05-12 10:52:00,
2013-05-12 07:03:00,62.0,-99.9,29.77,NW,320,11.0,13.0,-999,-99.99,,,-99.99,,2013-05-12 11:03:00,
2013-05-12 07:12:00,61.0,-99.9,29.77,NW,320,11.0,13.0,-999,-99.99,,,-99.99,,2013-05-12 11:12:00,
2013-05-12 07:22:00,61.0,-99.9,29.77,NNW,330,7.0,11.0,-999,-99.99,,,-99.99,,2013-05-12 11:22:00,
2013-05-12 07:32:00,61.0,-99.9,29.77,NNW,340,7.0,11.0,-999,-99.99,,,-99.99,,2013-05-12 11:32:00,
2013-05-12 07:42:00,61.0,-99.9,29.77,NNW,340,7.0,9.0,-999,-99.99,,,-99.99,,2013-05-12 11:42:00,
2013-05-12 07:52:00,61.0,-99.9,29.77,NW,320,7.0,11.0,-999,-99.99,,,-99.99,,2013-05-12 11:52:00,
2013-05-12 08:02:00,61.0,-99.9,29.77,NW,310,9.0,11.0,-999,-99.99,,,-99.99,,2013-05-12 12:02:00,
2013-05-12 08:11:00,61.0,-99.9,29.77,NW,310,7.0,11.0,-999,-99.99,,,-99.99,,2013-05-12 12:11:00,
2013-05-12 08:22:00,62.0,-99.9,29.77,NW,320,9.0,11.0,-999,-99.99,,,-99.99,,2013-05-12 12:22:00,
2013-05-12 08:32:00,62.0,-99.9,29.77,NW,320,9.0,11.0,-999,-99.99,,,-99.99,,2013-05-12 12:32:00,
2013-05-12 08:42:00,62.0,-99.9,29.77,NW,320,11.0,13.0,-999,-99.99,,,-99.99,,2013-05-12 12:42:00,
2013-05-12 08:52:00,62.0,-99.9,29.77,NW,320,13.0,20.0,-999,-99.99,,,-99.99,,2013-05-12 12:52:00,
2013-05-12 09:02:00,62.0,-99.9,29.78,NW,320,16.0,20.0,-999,-99.99,,,-99.99,,2013-05-12 13:02:00,
2013-05-12 09:11:00,62.0,-99.9,29.78,NW,310,18.0,22.0,-999,-99.99,,,-99.99,,2013-05-12 13:11:00,
2013-05-12 09:21:00,62.0,-99.9,29.79,NW,310,18.0,25.0,-999,-99.99,,,-99.99,,2013-05-12 13:21:00,
2013-05-12 09:32:00,62.0,-99.9,29.80,NW,310,18.0,25.0,-999,-99.99,,,-99.99,,2013-05-12 13:32:00,
2013-05-12 09:42:00,62.0,-99.9,29.80,NW,320,18.0,25.0,-999,-99.99,,,-99.99,,2013-05-12 13:42:00,
2013-05-12 09:52:00,62.0,-99.9,29.80,NW,310,18.0,25.0,-999,-99.99,,,-99.99,,2013-05-12 13:52:00,
2013-05-12 10:02:00,62.0,-99.9,29.80,WNW,300,22.0,29.0,-999,-99.99,,,-99.99,,2013-05-12 14:02:00,
2013-05-12 10:11:00,62.0,-99.9,29.80,WNW,300,20.0,27.0,-999,-99.99,,,-99.99,,2013-05-12 14:11:00,
2013-05-12 10:22:00,62.0,-99.9,29.80,WNW,300,22.0,27.0,-999,-99.99,,,-99.99,,2013-05-12 14:22:00,
2013-05-12 10:32:00,62.0,-99.9,29.81,NW,310,20.0,27.0,-999,-99.99,,,-99.99,,2013-05-12 14:32:00,
2013-05-12 10:42:00,62.0,-99.9,29.81,WNW,300,20.0,25.0,-999,-99.99,,,-99.99,,2013-05-12 14:42:00,
2013-05-12 10:52:00,61.0,-99.9,29.81,WNW,290,20.0,27.0,-999,-99.99,,,-99.99,,2013-05-12 14:52:00,
2013-05-12 11:01:00,61.0,-99.9,29.82,WNW,290,22.0,29.0,-999,-99.99,,,-99.99,,2013-05-12 15:01:00,
2013-05-12 11:11:00,60.0,-99.9,29.82,WNW,300,25.0,31.0,-999,-99.99,,,-99.99,,2013-05-12 15:11:00,
2013-05-12 11:21:00,60.0,-99.9,29.82,NW,310,20.0,29.0,-999,-99.99,,,-99.99,,2013-05-12 15:21:00,
2013-05-12 11:34:00,60.0,-99.9,29.82,NW,320,20.0,27.0,-999,-99.99,,,-99.99,,2013-05-12 15:34:00,
2013-05-12 11:43:00,60.0,-99.9,29.82,WNW,300,22.0,29.0,-999,-99.99,,,-99.99,,2013-05-12 15:43:00,
2013-05-12 11:53:00,60.0,-99.9,29.82,NW,320,20.0,29.0,-999,-99.99,,,-99.99,,2013-05-12 15:53:00,
2013-05-12 12:03:00,60.0,-99.9,29.82,NW,310,22.0,31.0,-999,-99.99,,,-99.99,,2013-05-12 16:03:00,
2013-05-12 12:13:00,60.0,-99.9,29.82,NW,320,20.0,27.0,-999,-99.99,,,-99.99,,2013-05-12 16:13:00,
2013-05-12 12:23:00,60.0,-99.9,29.82,NNW,330,18.0,25.0,-999,-99.99,,,-99.99,,2013-05-12 16:23:00,
2013-05-12 12:33:00,61.0,-99.9,29.82,NW,320,16.0,25.0,-999,-99.99,,,-99.99,,2013-05-12 16:33:00,
2013-05-12 12:42:00,61.0,-99.9,29.82,NNW,330,20.0,25.0,-999,-99.99,,,-99.99,,2013-05-12 16:42:00,
2013-05-12 12:53:00,61.0,-99.9,29.82,NW,320,18.0,27.0,-999,-99.99,,,-99.99,,2013-05-12 16:53:00,
2013-05-12 13:02:00,61.0,-99.9,29.82,NW,320,20.0,29.0,-999,-99.99,,,-99.99,,2013-05-12 17:02:00,
2013-05-12 13:12:00,61.0,-99.9,29.82,NW,310,22.0,29.0,-999,-99.99,,,-99.99,,2013-05-12 17:12:00,
2013-05-12 13:22:00,61.0,-99.9,29.83,WNW,300,20.0,25.0,-999,-99.99,,,-99.99,,2013-05-12 17:22:00,
2013-05-12 13:32:00,61.0,-99.9,29.83,NW,320,20.0,27.0,-999,-99.99,,,-99.99,,2013-05-12 17:32:00,
2013-05-12 13:42:00,61.0,-99.9,29.83,NW,320,18.0,29.0,-999,-99.99,,,-99.99,,2013-05-12 17:42:00,
2013-05-12 13:53:00,61.0,-99.9,29.83,NW,310,18.0,25.0,-999,-99.99,,,-99.99,,2013-05-12 17:53:00,
2013-05-12 14:01:00,61.0,-99.9,29.83,NW,320,20.0,31.0,-999,-99.99,,,-99.99,,2013-05-12 18:01:00,
2013-05-12 14:12:00,61.0,-99.9,29.83,NNW,330,18.0,25.0,-999,-99.99,,,-99.99,,2013-05-12 18:12:00,
2013-05-12 14:22:00,61.0,-99.9,29.83,NW,320,18.0,22.0,-999,-99.99,,,-99.99,,2013-05-12 18:22:00,
2013-05-12 14:32:00,61.0,-99.9,29.84,NNW,330,18.0,22.0,-999,-99.99,,,-99.99,,2013-05-12 18:32:00,
2013-05-12 14:42:00,61.0,-99.9,29.84,NW,310,20.0,27.0,-999,-99.99,,,-99.99,,2013-05-12 18:42:00,
2013-05-12 14:52:00,61.0,-99.9,29.84,NW,320,20.0,25.0,-999,-99.99,,,-99.99,,2013-05-12 18:52:00,
2013-05-12 15:01:00,61.0,-99.9,29.84,NW,320,16.0,22.0,-999,-99.99,,,-99.99,,2013-05-12 19:01:00,
2013-05-12 15:11:00,61.0,-99.9,29.84,NW,320,13.0,22.0,-999,-99.99,,,-99.99,,2013-05-12 19:11:00,
2013-05-12 15:22:00,62.0,-99.9,29.84,NW,320,13.0,20.0,-999,-99.99,,,-99.99,,2013-05-12 19:22:00,
2013-05-12 15:32:00,62.0,-99.9,29.84,NW,310,16.0,27.0,-999,-99.99,,,-99.99,,2013-05-12 19:32:00,
2013-05-12 15:42:00,62.0,-99.9,29.84,NW,320,16.0,22.0,-999,-99.99,,,-99.99,,2013-05-12 19:42:00,
2013-05-12 15:52:00,62.0,-99.9,29.84,WNW,300,18.0,27.0,-999,-99.99,,,-99.99,,2013-05-12 19:52:00,
2013-05-12 16:02:00,62.0,-99.9,29.83,WNW,300,13.0,22.0,-999,-99.99,,,-99.99,,2013-05-12 20:02:00,
2013-05-12 16:11:00,62.0,-99.9,29.83,NW,320,16.0,27.0,-999,-99.99,,,-99.99,,2013-05-12 20:11:00,
2013-05-12 16:22:00,62.0,-99.9,29.83,NW,320,20.0,29.0,-999,-99.99,,,-99.99,,2013-05-12 20:22:00,
2013-05-12 16:32:00,63.0,-99.9,29.84,NW,320,20.0,27.0,-999,-99.99,,,-99.99,,2013-05-12 20:32:00,
2013-05-12 16:42:00,63.0,-99.9,29.84,NW,310,18.0,25.0,-999,-99.99,,,-99.99,,2013-05-12 20:42:00,
2013-05-12 16:52:00,63.0,-99.9,29.84,NW,310,18.0,29.0,-999,-99.99,,,-99.99,,2013-05-12 20:52:00,
2013-05-12 17:01:00,63.0,-99.9,29.84,NW,310,22.0,31.0,-999,-99.99,,,-99.99,,2013-05-12 21:01:00,
2013-05-12 17:11:00,63.0,-99.9,29.84,NW,310,22.0,27.0,-999,-99.99,,,-99.99,,2013-05-12 21:11:00,
2013-05-12 17:22:00,63.0,-99.9,29.85,NW,310,18.0,27.0,-999,-99.99,,,-99.99,,2013-05-12 21:22:00,
2013-05-12 17:33:00,63.0,-99.9,29.85,NW,320,18.0,27.0,-999,-99.99,,,-99.99,,2013-05-12 21:33:00,
2013-05-12 17:43:00,63.0,-99.9,29.85,NNW,330,20.0,27.0,-999,-99.99,,,-99.99,,2013-05-12 21:43:00,
2013-05-12 17:53:00,63.0,-99.9,29.85,NNW,330,20.0,27.0,-999,-99.99,,,-99.99,,2013-05-12 21:53:00,
2013-05-12 18:03:00,63.0,-99.9,29.85,NW,320,20.0,29.0,-999,-99.99,,,-99.99,,2013-05-12 22:03:00,
2013-05-12 18:12:00,63.0,-99.9,29.86,NW,320,20.0,27.0,-999,-99.99,,,-99.99,,2013-05-12 22:12:00,
2013-05-12 18:23:00,63.0,-99.9,29.86,NW,320,18.0,22.0,-999,-99.99,,,-99.99,,2013-05-12 22:23:00,
2013-05-12 18:33:00,63.0,-99.9,29.86,NW,310,18.0,27.0,-999,-99.99,,,-99.99,,2013-05-12 22:33:00,
2013-05-12 18:42:00,63.0,-99.9,29.86,NW,310,20.0,29.0,-999,-99.99,,,-99.99,,2013-05-12 22:42:00,
2013-05-12 18:52:00,63.0,-99.9,29.87,NW,310,22.0,29.0,-999,-99.99,,,-99.99,,2013-05-12 22:52:00,
2013-05-12 19:02:00,63.0,-99.9,29.87,NW,320,22.0,31.0,-999,-99.99,,,-99.99,,2013-05-12 23:02:00,
2013-05-12 19:12:00,62.0,-99.9,29.87,NW,320,22.0,31.0,-999,-99.99,,,-99.99,,2013-05-12 23:12:00,
2013-05-12 19:22:00,62.0,-99.9,29.88,NW,320,20.0,27.0,-999,-99.99,,,-99.99,,2013-05-12 23:22:00,
2013-05-12 19:32:00,62.0,-99.9,29.88,NW,320,20.0,27.0,-999,-99.99,,,-99.99,,2013-05-12 23:32:00,
2013-05-12 19:42:00,62.0,-99.9,29.89,NW,310,20.0,25.0,-999,-99.99,,,-99.99,,2013-05-12 23:42:00,
2013-05-12 19:52:00,62.0,-99.9,29.89,NW,320,18.0,27.0,-999,-99.99,,,-99.99,,2013-05-12 23:52:00,
2013-05-12 20:01:00,61.0,-99.9,29.90,NW,320,18.0,25.0,-999,-99.99,,,-99.99,,2013-05-13 00:01:00,
2013-05-12 20:11:00,61.0,-99.9,29.90,NW,310,16.0,20.0,-999,-99.99,,,-99.99,,2013-05-13 00:11:00,
2013-05-12 20:22:00,61.0,-99.9,29.91,NW,310,16.0,20.0,-999,-99.99,,,-99.99,,2013-05-13 00:22:00,
2013-05-12 20:32:00,60.0,-99.9,29.91,NW,310,16.0,20.0,-999,-99.99,,,-99.99,,2013-05-13 00:32:00,
2013-05-12 20:42:00,60.0,-99.9,29.91,NW,320,13.0,22.0,-999,-99.99,,,-99.99,,2013-05-13 00:42:00,
2013-05-12 20:52:00,60.0,-99.9,29.92,NW,310,11.0,18.0,-999,-99.99,,,-99.99,,2013-05-13 00:52:00,
2013-05-12 21:01:00,60.0,-99.9,29.92,WNW,300,9.0,16.0,-999,-99.99,,,-99.99,,2013-05-13 01:01:00,
2013-05-12 21:11:00,60.0,-99.9,29.93,NW,320,18.0,25.0,-999,-99.99,,,-99.99,,2013-05-13 01:11:00,
2013-05-12 21:22:00,60.0,-99.9,29.93,NW,320,20.0,25.0,-999,-99.99,,,-99.99,,2013-05-13 01:22:00,
2013-05-12 21:32:00,60.0,-99.9,29.93,NNW,330,22.0,27.0,-999,-99.99,,,-99.99,,2013-05-13 01:32:00,
2013-05-12 21:42:00,59.0,-99.9,29.94,NNW,330,22.0,27.0,-999,-99.99,,,-99.99,,2013-05-13 01:42:00,
2013-05-12 21:52:00,59.0,-99.9,29.95,NNW,330,22.0,27.0,-999,-99.99,,,-99.99,,2013-05-13 01:52:00,
2013-05-12 22:02:00,59.0,-99.9,29.96,NW,320,20.0,25.0,-999,-99.99,,,-99.99,,2013-05-13 02:02:00,
2013-05-12 22:11:00,59.0,-99.9,29.97,NW,320,16.0,20.0,-999,-99.99,,,-99.99,,2013-05-13 02:11:00,
2013-05-12 22:22:00,58.0,-99.9,29.98,NW,310,13.0,18.0,-999,-99.99,,,-99.99,,2013-05-13 02:22:00,
2013-05-12 22:32:00,58.0,-99.9,29.98,WNW,300,13.0,18.0,-999,-99.99,,,-99.99,,2013-05-13 02:32:00,
2013-05-12 22:42:00,58.0,-99.9,29.98,NW,310,13.0,16.0,-999,-99.99,,,-99.99,,2013-05-13 02:42:00,
2013-05-12 22:52:00,58.0,-99.9,29.99,NW,310,13.0,16.0,-999,-99.99,,,-99.99,,2013-05-13 02:52:00,
2013-05-12 23:02:00,57.0,-99.9,29.99,NW,310,13.0,16.0,-999,-99.99,,,-99.99,,2013-05-13 03:02:00,
2013-05-12 23:11:00,57.0,-99.9,29.99,NW,310,13.0,16.0,-999,-99.99,,,-99.99,,2013-05-13 03:11:00,
2013-05-12 23:22:00,57.0,-99.9,30.00,WNW,300,13.0,16.0,-999,-99.99,,,-99.99,,2013-05-13 03:22:00,
2013-05-12 23:33:00,57.0,-99.9,30.00,NW,310,11.0,16.0,-999,-99.99,,,-99.99,,2013-05-13 03:33:00,
2013-05-12 23:42:00,57.0,-99.9,30.01,NW,310,11.0,16.0,-999,-99.99,,,-99.99,,2013-05-13 03:42:00,
2013-05-12 23:53:00,57.0,-99.9,30.01,NW,310,13.0,16.0,-999,-99.99,,,-99.99,,2013-05-13 03:53:00,